When you browse on this site, cookies collect data to enhance your experience and personalize the content and advertising you see.
Visit our Privacy Policy to learn more. By continuing to use the site, you agree to this use of cookies and data.
  • In Hungary
  • List of Countries
  • For 7 days
  • Water Temperature
  • Weather Map
  • News
  • Weather Widgets
  • user-avatar
    Login

    Hourly Weather Maloe Iste

    Today, 28 January, Tuesday

    Time Temperature Precipitation Wind Pressure Humidity
    00:00 -6°C° 0 mm 3 mps 750 mmHg 83%
    01:00 -7°C° 0.1 mm 4 mps 750 mmHg 85%
    02:00 -8°C° 0.1 mm 4 mps 750 mmHg 87%
    03:00 -8°C° 0 mm 4 mps 750 mmHg 90%
    04:00 -8°C° 0.3 mm 4 mps 749 mmHg 91%
    05:00 -8°C° 0.3 mm 5 mps 749 mmHg 92%
    06:00 -10°C° 0.3 mm 5 mps 749 mmHg 93%
    07:00 -8°C° 0.4 mm 5 mps 749 mmHg 94%
    08:00 -8°C° 0.4 mm 5 mps 748 mmHg 94%
    09:00 -8°C° 0 mm 5 mps 748 mmHg 94%
    10:00 -8°C° 0.3 mm 5 mps 748 mmHg 94%
    11:00 -7°C° 0.3 mm 5 mps 748 mmHg 94%
    12:00 -7°C° 0.3 mm 5 mps 748 mmHg 94%
    13:00 -6°C° 0.1 mm 5 mps 748 mmHg 94%
    14:00 -6°C° 0.1 mm 5 mps 747 mmHg 95%
    15:00 -5°C° 0.1 mm 4 mps 747 mmHg 95%
    16:00 -4°C° 0.3 mm 4 mps 747 mmHg 96%
    17:00 -4°C° 0.3 mm 4 mps 747 mmHg 96%
    18:00 -4°C° 0.3 mm 4 mps 746 mmHg 96%
    19:00 -4°C° 0.3 mm 4 mps 746 mmHg 97%
    20:00 -3°C° 0.3 mm 4 mps 746 mmHg 97%
    21:00 -2°C° 0.3 mm 3 mps 746 mmHg 97%
    22:00 -2°C° 0.2 mm 3 mps 746 mmHg 97%
    23:00 -2°C° 0.2 mm 3 mps 746 mmHg 97%

    Tomorrow, 29 January, Wednesday

    Time Temperature Precipitation Wind Pressure Humidity
    00:00 -2°C° 0.2 mm 3 mps 746 mmHg 97%
    01:00 -2°C° 0.1 mm 3 mps 746 mmHg 97%
    02:00 -2°C° 0.1 mm 3 mps 746 mmHg 97%
    03:00 -1°C° 0.1 mm 3 mps 746 mmHg 96%
    04:00 -1°C° 0 mm 3 mps 746 mmHg 96%
    05:00 -1°C° 0 mm 3 mps 745 mmHg 97%
    06:00 -1°C° 0 mm 3 mps 745 mmHg 97%
    07:00 -2°C° 0.1 mm 3 mps 745 mmHg 97%
    08:00 -2°C° 0.1 mm 3 mps 745 mmHg 97%
    09:00 -2°C° 0.1 mm 3 mps 746 mmHg 97%
    10:00 -2°C° 0 mm 3 mps 745 mmHg 97%
    11:00 -1°C° 0 mm 3 mps 745 mmHg 98%
    12:00 -1°C° 0 mm 3 mps 745 mmHg 98%
    13:00 -1°C° 0 mm 3 mps 745 mmHg 99%
    14:00 -1°C° 0 mm 3 mps 745 mmHg 99%
    15:00 +1°C° 0 mm 2 mps 744 mmHg 99%
    16:00 0°C° 0 mm 3 mps 744 mmHg 99%
    17:00 0°C° 0 mm 3 mps 744 mmHg 99%
    18:00 0°C° 0 mm 3 mps 743 mmHg 98%
    19:00 0°C° 0.1 mm 3 mps 743 mmHg 98%
    20:00 0°C° 0.1 mm 3 mps 743 mmHg 98%
    21:00 0°C° 0.1 mm 3 mps 743 mmHg 98%
    22:00 -1°C° 0.2 mm 4 mps 742 mmHg 98%
    23:00 -1°C° 0.2 mm 4 mps 742 mmHg 98%

    Day after tomorrow, 30 January, Thursday

    Time Temperature Precipitation Wind Pressure Humidity
    00:00 -1°C° 0.2 mm 4 mps 742 mmHg 98%
    01:00 -1°C° 0.1 mm 4 mps 741 mmHg 98%
    02:00 -1°C° 0.1 mm 4 mps 741 mmHg 98%
    03:00 -1°C° 0.1 mm 4 mps 741 mmHg 98%
    04:00 -1°C° 0.1 mm 5 mps 740 mmHg 98%
    05:00 -1°C° 0.1 mm 5 mps 740 mmHg 98%
    06:00 -1°C° 0.1 mm 5 mps 739 mmHg 97%
    07:00 -1°C° 0.1 mm 5 mps 739 mmHg 98%
    08:00 -1°C° 0.1 mm 5 mps 739 mmHg 98%
    09:00 -1°C° 0.1 mm 5 mps 739 mmHg 98%
    10:00 -1°C° 0.6 mm 5 mps 739 mmHg 98%
    11:00 0°C° 0.6 mm 5 mps 738 mmHg 99%
    12:00 0°C° 0.6 mm 5 mps 738 mmHg 99%
    13:00 -1°C° 0.2 mm 5 mps 738 mmHg 98%
    14:00 -1°C° 0.2 mm 5 mps 738 mmHg 96%
    15:00 -1°C° 0.2 mm 4 mps 739 mmHg 94%
    16:00 -2°C° 0 mm 4 mps 739 mmHg 93%
    17:00 -3°C° 0 mm 4 mps 739 mmHg 92%
    18:00 -2°C° 0 mm 3 mps 739 mmHg 91%
    19:00 -3°C° 0 mm 4 mps 739 mmHg 92%
    20:00 -3°C° 0 mm 4 mps 739 mmHg 92%
    21:00 -3°C° 0 mm 4 mps 740 mmHg 92%
    22:00 -3°C° 0 mm 4 mps 739 mmHg 92%
    23:00 -4°C° 0 mm 5 mps 739 mmHg 92%

    31 January, Friday

    Time Temperature Precipitation Wind Pressure Humidity
    00:00 -4°C° 0 mm 5 mps 739 mmHg 92%
    01:00 -4°C° 0 mm 6 mps 739 mmHg 92%
    02:00 -4°C° 0 mm 6 mps 738 mmHg 91%
    03:00 -4°C° 0 mm 6 mps 738 mmHg 91%
    04:00 -4°C° 0 mm 6 mps 738 mmHg 91%
    05:00 -4°C° 0 mm 7 mps 737 mmHg 92%
    06:00 -4°C° 0 mm 7 mps 736 mmHg 92%
    07:00 -4°C° 0.5 mm 7 mps 736 mmHg 93%
    08:00 -4°C° 0.5 mm 7 mps 736 mmHg 94%
    09:00 -4°C° 0.5 mm 7 mps 736 mmHg 95%
    10:00 -4°C° 0.2 mm 7 mps 735 mmHg 95%
    11:00 -3°C° 0.2 mm 7 mps 735 mmHg 95%
    12:00 -3°C° 0.2 mm 7 mps 735 mmHg 95%
    13:00 -3°C° 0.3 mm 7 mps 735 mmHg 94%
    14:00 -3°C° 0.3 mm 7 mps 735 mmHg 94%
    15:00 -3°C° 0.3 mm 7 mps 736 mmHg 94%
    16:00 -3°C° 0.1 mm 7 mps 736 mmHg 92%
    17:00 -4°C° 0.1 mm 6 mps 736 mmHg 91%
    18:00 -4°C° 0.1 mm 6 mps 737 mmHg 89%
    19:00 -5°C° 0 mm 5 mps 737 mmHg 90%
    20:00 -5°C° 0 mm 5 mps 737 mmHg 91%
    21:00 -4°C° 0 mm 4 mps 738 mmHg 92%
    22:00 -4°C° 0 mm 4 mps 738 mmHg 92%
    23:00 -4°C° 0 mm 4 mps 738 mmHg 93%

    1 February, Saturday

    Time Temperature Precipitation Wind Pressure Humidity
    00:00 -4°C° 0 mm 3 mps 738 mmHg 94%
    01:00 -4°C° 0.1 mm 3 mps 739 mmHg 95%
    02:00 -4°C° 0.1 mm 3 mps 739 mmHg 96%
    03:00 -4°C° 0.1 mm 3 mps 739 mmHg 97%
    04:00 -2°C° 0.3 mm 3 mps 739 mmHg 97%
    05:00 -2°C° 0.3 mm 3 mps 738 mmHg 97%
    06:00 -2°C° 0.3 mm 3 mps 738 mmHg 97%
    07:00 -2°C° 0.4 mm 3 mps 738 mmHg 98%
    08:00 -1°C° 0.4 mm 3 mps 738 mmHg 98%
    09:00 -2°C° 0.4 mm 4 mps 738 mmHg 98%
    10:00 -1°C° 0.3 mm 3 mps 738 mmHg 98%
    11:00 -1°C° 0.3 mm 3 mps 738 mmHg 99%
    12:00 0°C° 0.3 mm 3 mps 738 mmHg 99%
    13:00 0°C° 0.1 mm 3 mps 738 mmHg 99%
    14:00 0°C° 0.1 mm 3 mps 738 mmHg 99%
    15:00 +1°C° 0.1 mm 2 mps 738 mmHg 99%
    16:00 +1°C° 0.1 mm 2 mps 739 mmHg 99%
    17:00 +1°C° 0.1 mm 2 mps 739 mmHg 98%
    18:00 +1°C° 0.1 mm 2 mps 739 mmHg 98%
    19:00 0°C° 0.2 mm 3 mps 739 mmHg 98%
    20:00 0°C° 0.2 mm 3 mps 739 mmHg 98%
    21:00 0°C° 0.2 mm 3 mps 739 mmHg 98%
    22:00 0°C° 0.1 mm 3 mps 739 mmHg 98%
    23:00 0°C° 0.1 mm 3 mps 739 mmHg 98%

    2 February, Sunday

    Time Temperature Precipitation Wind Pressure Humidity
    00:00 0°C° 0.1 mm 3 mps 739 mmHg 98%
    01:00 -1°C° 0 mm 3 mps 739 mmHg 98%
    02:00 -2°C° 0 mm 4 mps 739 mmHg 97%
    03:00 -2°C° 0 mm 4 mps 738 mmHg 97%
    04:00 -2°C° 0.2 mm 4 mps 738 mmHg 98%
    05:00 -2°C° 0.2 mm 4 mps 738 mmHg 98%
    06:00 -1°C° 0.2 mm 4 mps 738 mmHg 98%
    07:00 -1°C° 0.2 mm 4 mps 738 mmHg 98%
    08:00 0°C° 0.2 mm 3 mps 738 mmHg 98%
    09:00 0°C° 0.2 mm 3 mps 738 mmHg 98%
    10:00 0°C° 0.1 mm 3 mps 738 mmHg 99%
    11:00 0°C° 0.1 mm 3 mps 738 mmHg 99%
    12:00 -1°C° 0.1 mm 4 mps 738 mmHg 99%
    13:00 0°C° 0.1 mm 3 mps 738 mmHg 99%
    14:00 0°C° 0.1 mm 3 mps 738 mmHg 99%
    15:00 0°C° 0.1 mm 3 mps 738 mmHg 99%
    16:00 0°C° 0.2 mm 3 mps 738 mmHg 99%
    17:00 0°C° 0.2 mm 3 mps 738 mmHg 99%
    18:00 0°C° 0.2 mm 3 mps 738 mmHg 99%
    19:00 0°C° 0 mm 3 mps 737 mmHg 99%
    20:00 0°C° 0 mm 3 mps 737 mmHg 99%
    21:00 -1°C° 0 mm 4 mps 736 mmHg 98%
    22:00 -1°C° 0.4 mm 4 mps 736 mmHg 98%
    23:00 -1°C° 0.4 mm 4 mps 736 mmHg 98%
    Show more